| time (UTC) | temp F | wind direction | speed MPH | gust MPH | rain 1hr in | rain 24hr in | rain mn in | humidity % | barometer mb |
| 20260507113042 | 71 | 249 | 3.0 | 9.0 | 0.00 | 0.00 | 0.00 | 53 | 1014.1 |
| 20260507112120 | 71 | 234 | 3.0 | 10.0 | 0.00 | 0.00 | 0.00 | 54 | 1014.2 |
| 20260507111017 | 71 | 226 | 4.0 | 11.0 | 0.00 | 0.00 | 0.00 | 55 | 1014.1 |
| 20260507110054 | 69 | 271 | 4.0 | 9.0 | 0.00 | 0.00 | 0.00 | 58 | 1014.2 |
| 20260507105112 | 67 | 273 | 3.0 | 7.0 | 0.00 | 0.00 | 0.00 | 62 | 1014.2 |
| 20260507104028 | 67 | 296 | 2.0 | 7.0 | 0.00 | 0.00 | 0.00 | 61 | 1014.3 |
| 20260507103046 | 70 | 293 | 3.0 | 8.0 | 0.00 | 0.02 | 0.00 | 58 | 1014.4 |
| 20260507102023 | 71 | 203 | 2.0 | 4.0 | 0.00 | 0.04 | 0.00 | 60 | 1014.4 |
| 20260507101100 | 70 | 246 | 1.0 | 4.0 | 0.00 | 0.04 | 0.00 | 63 | 1014.4 |
| 20260507100017 | 69 | 255 | 3.0 | 7.0 | 0.00 | 0.04 | 0.00 | 63 | 1014.4 |
| 20260507095035 | 68 | 252 | 2.0 | 7.0 | 0.00 | 0.04 | 0.00 | 62 | 1014.5 |
| 20260507094033 | 68 | 303 | 1.0 | 7.0 | 0.00 | 0.04 | 0.00 | 62 | 1014.4 |
| 20260507093030 | 67 | 236 | 4.0 | 9.0 | 0.00 | 0.04 | 0.00 | 62 | 1014.4 |
| 20260507092147 | 67 | 307 | 3.0 | 7.0 | 0.00 | 0.04 | 0.00 | 62 | 1014.5 |
| 20260507091144 | 66 | 278 | 2.0 | 6.0 | 0.00 | 0.04 | 0.00 | 63 | 1014.6 |
| 20260507090020 | 66 | 281 | 2.0 | 6.0 | 0.00 | 0.04 | 0.00 | 63 | 1014.4 |
| 20260507085058 | 66 | 274 | 2.0 | 3.0 | 0.00 | 0.04 | 0.00 | 65 | 1014.4 |
| 20260507084055 | 65 | 303 | 1.0 | 3.0 | 0.00 | 0.04 | 0.00 | 67 | 1014.3 |
| 20260507083032 | 65 | 283 | 2.0 | 3.0 | 0.00 | 0.04 | 0.00 | 67 | 1014.3 |
| 20260507082030 | 65 | 237 | 2.0 | 7.0 | 0.00 | 0.04 | 0.00 | 68 | 1014.4 |
| 20260507081209 | 66 | 254 | 2.0 | 4.0 | 0.00 | 0.05 | 0.00 | 71 | 1014.3 |
| 20260507080024 | 64 | 223 | 1.0 | 3.0 | 0.00 | 0.05 | 0.00 | 74 | 1014.2 |
| 20260507075121 | 64 | 206 | 1.0 | 3.0 | 0.00 | 0.05 | 0.00 | 75 | 1014.3 |
| 20260507074018 | 64 | 227 | 1.0 | 3.0 | 0.00 | 0.05 | 0.00 | 73 | 1014.1 |
| 20260507073116 | 65 | 196 | 1.0 | 3.0 | 0.00 | 0.06 | 0.00 | 70 | 1014.2 |
| 20260507072213 | 64 | 190 | 1.0 | 3.0 | 0.00 | 0.06 | 0.00 | 73 | 1014.1 |
| 20260507071049 | 64 | 145 | 1.0 | 3.0 | 0.00 | 0.06 | 0.00 | 75 | 1013.9 |
| 20260507070207 | 63 | 86 | 1.0 | 2.0 | 0.00 | 0.06 | 0.00 | 77 | 1013.9 |
| 20260507065124 | 62 | 198 | 0.0 | 1.0 | 0.00 | 0.06 | 0.00 | 80 | 1013.8 |
| 20260507064121 | 60 | 100 | 0.0 | 1.0 | 0.00 | 0.07 | 0.00 | 83 | 1013.8 |
| 20260507063018 | 59 | 0.0 | 0.0 | 0.00 | 0.08 | 0.00 | 89 | 1013.7 | |
| 20260507062116 | 58 | 0.0 | 0.0 | 0.00 | 0.09 | 0.00 | 92 | 1013.7 | |
| 20260507061113 | 57 | 0.0 | 0.0 | 0.00 | 0.11 | 0.00 | 92 | 1013.7 | |
| 20260507060210 | 57 | 97 | 0.0 | 1.0 | 0.00 | 0.14 | 0.00 | 93 | 1013.8 |
| 20260507055147 | 56 | 0.0 | 0.0 | 0.00 | 0.17 | 0.00 | 93 | 1013.5 | |
| 20260507054144 | 56 | 95 | 0.0 | 1.0 | 0.00 | 0.20 | 0.00 | 94 | 1013.5 |
| 20260507053141 | 56 | 0.0 | 0.0 | 0.00 | 0.24 | 0.00 | 95 | 1013.3 | |
| 20260507052119 | 55 | 0.0 | 0.0 | 0.00 | 0.29 | 0.00 | 95 | 1013.1 | |
| 20260507051036 | 55 | 100 | 0.0 | 2.0 | 0.00 | 0.35 | 0.00 | 96 | 1013.0 |
| 20260507044148 | 53 | 0.0 | 0.0 | 0.00 | 0.42 | 0.00 | 94 | 1012.8 | |
| 20260507043104 | 53 | 0.0 | 0.0 | 0.00 | 0.44 | 0.00 | 94 | 1012.8 | |
| 20260507042141 | 53 | 0.0 | 0.0 | 0.00 | 0.48 | 0.00 | 94 | 1012.6 | |
| 20260507041119 | 53 | 0.0 | 0.0 | 0.00 | 0.49 | 0.00 | 93 | 1012.7 | |
| 20260507040035 | 54 | 0.0 | 0.0 | 0.00 | 0.54 | 0.00 | 93 | 1012.5 | |
| 20260507035133 | 54 | 3 | 0.0 | 1.0 | 0.00 | 0.55 | 0.00 | 93 | 1012.3 |
| 20260507034030 | 54 | 349 | 0.0 | 1.0 | 0.00 | 0.55 | 0.00 | 93 | 1012.4 |
| 20260507033207 | 54 | 0.0 | 0.0 | 0.00 | 0.55 | 0.00 | 93 | 1012.4 | |
| 20260507032044 | 54 | 0.0 | 0.0 | 0.00 | 0.55 | 0.00 | 93 | 1012.2 | |
| 20260507030042 | 54 | 109 | 2.0 | 3.0 | 0.00 | 0.55 | 0.00 | 93 | 1012.3 |
| 20260507025200 | 54 | 97 | 2.0 | 3.0 | 0.00 | 0.55 | 0.00 | 92 | 1012.2 |
| 20260507024055 | 54 | 85 | 2.0 | 3.0 | 0.00 | 0.55 | 0.00 | 92 | 1012.2 |
| 20260507023031 | 54 | 117 | 1.0 | 3.0 | 0.00 | 0.55 | 0.00 | 91 | 1012.1 |
| 20260507022148 | 55 | 89 | 2.0 | 4.0 | 0.00 | 0.55 | 0.00 | 91 | 1012.0 |
| 20260507021125 | 55 | 88 | 2.0 | 3.0 | 0.00 | 0.55 | 0.00 | 91 | 1012.2 |
| 20260507015140 | 55 | 91 | 2.0 | 4.0 | 0.00 | 0.55 | 0.00 | 90 | 1012.0 |
| 20260507014037 | 55 | 86 | 2.0 | 4.0 | 0.00 | 0.55 | 0.00 | 90 | 1012.0 |
| 20260507013115 | 56 | 101 | 2.0 | 3.0 | 0.00 | 0.55 | 0.00 | 90 | 1011.8 |
| 20260507012133 | 56 | 102 | 2.0 | 4.0 | 0.00 | 0.55 | 0.00 | 90 | 1011.8 |
| 20260507010025 | 56 | 88 | 2.0 | 6.0 | 0.00 | 0.55 | 0.00 | 92 | 1011.9 |
| 20260507005042 | 56 | 86 | 1.0 | 3.0 | 0.00 | 0.55 | 0.00 | 92 | 1012.0 |
| 20260507004140 | 56 | 82 | 2.0 | 4.0 | 0.00 | 0.55 | 0.00 | 92 | 1012.1 |
| 20260507003117 | 55 | 80 | 2.0 | 4.0 | 0.00 | 0.55 | 0.00 | 92 | 1012.1 |
| 20260507002154 | 55 | 110 | 2.0 | 3.0 | 0.00 | 0.55 | 0.00 | 92 | 1012.1 |
| 20260507001152 | 56 | 89 | 2.0 | 3.0 | 0.00 | 0.55 | 0.00 | 93 | 1012.1 |
| 20260507000129 | 56 | 85 | 2.0 | 4.0 | 0.00 | 0.55 | 0.00 | 92 | 1011.8 |
| 20260506235108 | 56 | 96 | 2.0 | 3.0 | 0.00 | 0.55 | 0.00 | 92 | 1011.8 |
| 20260506234103 | 56 | 96 | 2.0 | 6.0 | 0.00 | 0.55 | 0.00 | 91 | 1011.7 |
| 20260506233142 | 56 | 90 | 1.0 | 2.0 | 0.00 | 0.55 | 0.00 | 91 | 1011.8 |
| 20260506232101 | 56 | 96 | 0.0 | 2.0 | 0.00 | 0.55 | 0.00 | 91 | 1011.9 |
| 20260506231038 | 56 | 84 | 0.0 | 2.0 | 0.00 | 0.55 | 0.00 | 91 | 1011.7 |
| 20260506230036 | 56 | 98 | 1.0 | 2.0 | 0.00 | 0.55 | 0.00 | 91 | 1011.6 |
| 20260506225050 | 56 | 75 | 0.0 | 2.0 | 0.00 | 0.55 | 0.00 | 92 | 1011.6 |
| 20260506224107 | 56 | 95 | 2.0 | 3.0 | 0.00 | 0.55 | 0.00 | 93 | 1011.6 |
| 20260506223024 | 56 | 82 | 1.0 | 4.0 | 0.00 | 0.55 | 0.00 | 93 | 1011.7 |
| 20260506222121 | 56 | 323 | 0.0 | 2.0 | 0.00 | 0.55 | 0.00 | 93 | 1011.6 |
| 20260506221018 | 56 | 344 | 1.0 | 2.0 | 0.00 | 0.55 | 0.00 | 93 | 1011.8 |
| 20260506220035 | 57 | 94 | 0.0 | 1.0 | 0.00 | 0.55 | 0.55 | 92 | 1011.7 |
| 20260506215032 | 57 | 92 | 0.0 | 2.0 | 0.00 | 0.55 | 0.55 | 92 | 1011.6 |
| 20260506214029 | 57 | 90 | 1.0 | 2.0 | 0.00 | 0.55 | 0.55 | 92 | 1011.6 |
| 20260506213026 | 57 | 90 | 3.0 | 6.0 | 0.00 | 0.55 | 0.55 | 92 | 1011.4 |
| 20260506212024 | 57 | 90 | 0.0 | 3.0 | 0.00 | 0.55 | 0.55 | 93 | 1011.6 |
| 20260506211021 | 58 | 93 | 1.0 | 3.0 | 0.00 | 0.55 | 0.55 | 93 | 1011.5 |
| 20260506210040 | 58 | 80 | 3.0 | 4.0 | 0.00 | 0.55 | 0.55 | 94 | 1011.4 |
| 20260506205035 | 58 | 86 | 1.0 | 3.0 | 0.00 | 0.55 | 0.55 | 94 | 1011.3 |
| 20260506204213 | 59 | 89 | 3.0 | 7.0 | 0.00 | 0.55 | 0.55 | 93 | 1011.3 |
| 20260506203030 | 59 | 99 | 2.0 | 4.0 | 0.00 | 0.55 | 0.55 | 92 | 1011.3 |
| 20260506202107 | 59 | 93 | 1.0 | 3.0 | 0.00 | 0.55 | 0.55 | 92 | 1011.1 |
| 20260506201205 | 60 | 86 | 3.0 | 6.0 | 0.00 | 0.55 | 0.55 | 91 | 1010.9 |
| 20260506195039 | 61 | 100 | 3.0 | 4.0 | 0.00 | 0.55 | 0.55 | 90 | 1011.1 |
| 20260506194056 | 61 | 93 | 3.0 | 8.0 | 0.00 | 0.55 | 0.55 | 89 | 1011.1 |
| 20260506192030 | 62 | 79 | 3.0 | 6.0 | 0.00 | 0.55 | 0.55 | 87 | 1010.9 |
| 20260506191027 | 62 | 81 | 3.0 | 8.0 | 0.00 | 0.55 | 0.55 | 87 | 1010.9 |
| 20260506190024 | 62 | 103 | 2.0 | 6.0 | 0.00 | 0.55 | 0.55 | 87 | 1010.4 |
| 20260506185020 | 62 | 114 | 0.0 | 2.0 | 0.00 | 0.55 | 0.55 | 86 | 1010.2 |
| 20260506184057 | 62 | 119 | 1.0 | 2.0 | 0.00 | 0.55 | 0.55 | 86 | 1010.2 |
| 20260506183033 | 63 | 86 | 2.0 | 7.0 | 0.00 | 0.55 | 0.55 | 85 | 1010.1 |
| 20260506182030 | 64 | 95 | 2.0 | 7.0 | 0.00 | 0.55 | 0.55 | 84 | 1009.8 |
| 20260506181027 | 64 | 89 | 1.0 | 3.0 | 0.00 | 0.55 | 0.55 | 84 | 1009.9 |
| 20260506180024 | 65 | 84 | 2.0 | 6.0 | 0.00 | 0.55 | 0.55 | 82 | 1009.6 |
| 20260506175021 | 65 | 95 | 3.0 | 6.0 | 0.00 | 0.55 | 0.55 | 81 | 1009.3 |
| 20260506174138 | 65 | 82 | 5.0 | 9.0 | 0.00 | 0.55 | 0.55 | 80 | 1009.3 |
| 20260506173035 | 66 | 114 | 2.0 | 6.0 | 0.00 | 0.55 | 0.55 | 79 | 1009.0 |
| 20260506172052 | 66 | 94 | 3.0 | 13.0 | 0.00 | 0.55 | 0.55 | 79 | 1008.8 |
| 20260506171030 | 66 | 85 | 2.0 | 6.0 | 0.00 | 0.55 | 0.55 | 79 | 1008.8 |
| 20260506170046 | 66 | 77 | 5.0 | 11.0 | 0.00 | 0.55 | 0.55 | 77 | 1008.5 |
| 20260506165023 | 67 | 78 | 4.0 | 10.0 | 0.00 | 0.55 | 0.55 | 76 | 1008.4 |
| 20260506164101 | 68 | 66 | 5.0 | 15.0 | 0.00 | 0.55 | 0.55 | 75 | 1008.4 |
| 20260506163038 | 67 | 95 | 7.0 | 13.0 | 0.00 | 0.55 | 0.55 | 75 | 1008.3 |
| 20260506162035 | 68 | 96 | 5.0 | 16.0 | 0.00 | 0.55 | 0.55 | 74 | 1008.3 |
| 20260506161113 | 67 | 85 | 6.0 | 14.0 | 0.00 | 0.55 | 0.55 | 74 | 1008.3 |
| 20260506160129 | 68 | 73 | 6.0 | 14.0 | 0.00 | 0.55 | 0.55 | 74 | 1008.4 |
| 20260506155028 | 68 | 79 | 5.0 | 13.0 | 0.00 | 0.55 | 0.55 | 75 | 1008.4 |
| 20260506154024 | 68 | 91 | 5.0 | 11.0 | 0.00 | 0.55 | 0.55 | 74 | 1008.4 |
| 20260506153041 | 67 | 89 | 5.0 | 15.0 | 0.00 | 0.55 | 0.55 | 74 | 1008.4 |
| 20260506152038 | 68 | 82 | 6.0 | 14.0 | 0.00 | 0.55 | 0.55 | 77 | 1008.5 |
| 20260506151136 | 67 | 105 | 3.0 | 10.0 | 0.00 | 0.55 | 0.55 | 77 | 1008.7 |
| 20260506150033 | 67 | 122 | 4.0 | 10.0 | 0.00 | 0.55 | 0.55 | 80 | 1008.9 |
| 20260506145050 | 66 | 61 | 4.0 | 11.0 | 0.00 | 0.55 | 0.55 | 81 | 1009.0 |
| 20260506144028 | 66 | 94 | 4.0 | 10.0 | 0.00 | 0.55 | 0.55 | 80 | 1009.1 |
| 20260506143025 | 65 | 90 | 6.0 | 13.0 | 0.00 | 0.55 | 0.55 | 80 | 1009.1 |
| 20260506142045 | 65 | 98 | 4.0 | 13.0 | 0.00 | 0.55 | 0.55 | 82 | 1009.3 |
| 20260506141020 | 65 | 90 | 5.0 | 17.0 | 0.00 | 0.55 | 0.55 | 83 | 1009.4 |
| 20260506135034 | 65 | 86 | 6.0 | 15.0 | 0.00 | 0.55 | 0.55 | 84 | 1009.6 |
| 20260506134031 | 64 | 84 | 4.0 | 8.0 | 0.00 | 0.55 | 0.55 | 84 | 1009.8 |
| 20260506133029 | 66 | 82 | 5.0 | 14.0 | 0.00 | 0.56 | 0.55 | 83 | 1009.9 |
| 20260506132046 | 66 | 108 | 6.0 | 15.0 | 0.00 | 0.56 | 0.55 | 83 | 1010.0 |
| 20260506131023 | 66 | 83 | 5.0 | 17.0 | 0.00 | 0.56 | 0.55 | 84 | 1010.0 |
| 20260506130019 | 65 | 80 | 5.0 | 14.0 | 0.00 | 0.56 | 0.55 | 85 | 1009.9 |
| 20260506125016 | 65 | 90 | 6.0 | 16.0 | 0.00 | 0.56 | 0.55 | 83 | 1010.0 |
| 20260506124135 | 65 | 75 | 5.0 | 10.0 | 0.00 | 0.56 | 0.55 | 85 | 1010.0 |
| 20260506123112 | 63 | 86 | 5.0 | 14.0 | 0.00 | 0.56 | 0.55 | 88 | 1010.1 |
| 20260506122131 | 63 | 54 | 5.0 | 14.0 | 0.00 | 0.56 | 0.55 | 87 | 1010.2 |
| 20260506121046 | 63 | 75 | 7.0 | 17.0 | 0.00 | 0.56 | 0.55 | 89 | 1010.2 |
| 20260506120023 | 62 | 88 | 7.0 | 14.0 | 0.00 | 0.56 | 0.55 | 90 | 1010.3 |
| 20260506115040 | 62 | 82 | 5.0 | 13.0 | 0.00 | 0.56 | 0.55 | 91 | 1010.4 |
| 20260506114018 | 61 | 89 | 4.0 | 13.0 | 0.00 | 0.56 | 0.55 | 92 | 1010.5 |